Hourly Data Report for October 20, 2015

All times are specified in Local Standard Time (LST). Add 1 hour to adjust for Daylight Saving Time where and when it is observed.

CHARLOTTETOWN A
PRINCE EDWARD ISLAND

46°17'21.000" N
63°07'09.000" W
48.50 m
8300301
71706
YYG

Download Data

Hourly Data (October 2015)
Hourly Data Report for October 20, 2015
Temp Definition
°C
Dew Point Temp Definition
°C
Rel Hum Definition
%
Wind Dir Definition
10's deg

Wind Spd Definition
km/h
Visibility Definition
km
Stn Press Definition
kPa
Hmdx Definition


Wind Chill Definition


Weather Definition


TIME
00:00 Legend Double Dagger 1.0 -5.7 61 24 14 24.1 101.34     LegendNANA
01:00 Legend Double Dagger 1.8 -5.2 60 23 8 24.1 101.30     LegendNANA
02:00 Legend Double Dagger 3.0 -4.5 58 24 11 24.1 101.25     Cloudy
03:00 Legend Double Dagger 3.9 -2.7 62 24 14 24.1 101.16     LegendNANA
04:00 Legend Double Dagger 4.6 -3.0 58 23 14 24.1 101.13     LegendNANA
05:00 Legend Double Dagger 4.9 -0.3 69 21 16 24.1 101.08     Cloudy
06:00 Legend Double Dagger 5.0 1.5 78 20 25 24.1 101.03     LegendNANA
07:00 Legend Double Dagger 5.8 3.0 82 19 25 24.1 100.98     LegendNANA
08:00 Legend Double Dagger 6.6 3.4 80 21 27 24.1 100.95     Cloudy
09:00 Legend Double Dagger 7.6 4.0 78 21 24 24.1 100.89     LegendNANA
10:00 Legend Double Dagger 8.3 4.3 76 22 32 24.1 100.79     LegendNANA
11:00 Legend Double Dagger 9.1 4.9 75 22 33 24.1 100.75     Cloudy
12:00 Legend Double Dagger 9.7 5.5 75 21 33 24.1 100.68     LegendNANA
13:00 Legend Double Dagger 10.9 6.3 73 20 38 24.1 100.56     LegendNANA
14:00 Legend Double Dagger 12.1 6.8 70 22 35 24.1 100.48     Mostly Cloudy
15:00 Legend Double Dagger 11.7 7.1 73 22 27 24.1 100.45     LegendNANA
16:00 Legend Double Dagger 11.6 7.4 75 22 24 24.1 100.44     LegendNANA
17:00 Legend Double Dagger 11.4 7.5 77 23 22 24.1 100.51     Cloudy
18:00 Legend Double Dagger 11.3 8.2 81 24 32 24.1 100.58     LegendNANA
19:00 Legend Double Dagger 10.8 8.2 84 22 21 24.1 100.63     LegendNANA
20:00 Legend Double Dagger 10.9 8.3 84 23 19 24.1 100.68     Cloudy
21:00 Legend Double Dagger 10.7 8.3 85 23 19 19.3 100.74     LegendNANA
22:00 Legend Double Dagger 8.0 1.9 65 30 22 24.1 100.87     Rain Showers
23:00 Legend Double Dagger 7.8 0.8 61 30 19 24.1 100.94     Rain Showers

Notes on Data Quality.

Legend

  • E = Estimated
  • M = Missing
  • NA = Not Available
  • ‡ = Partner data that is not subject to review by the National Climate Archives
Date modified: